White Plains, CT

6:41 PM EDT on May 26, 2017 (GMT -0400)
Westchester County

Weather History for KHPN - November, 2011

Change the Weather History Date:

Sunday, November 20, 2011

  Actual Average Record
Temperature  
Mean Temperature 55 °F -  
Max Temperature 64 °F 48 °F 74 °F (1985)
Min Temperature 46 °F 34 °F 18 °F (1986)
Degree Days  
Heating Degree Days 10    
Growing Degree Days 5 (Base 50)    
Moisture  
Dew Point 44 °F    
Average Humidity 67    
Maximum Humidity 80    
Minimum Humidity 50    
Precipitation  
Precipitation 0.00 in - - ()
Sea Level Pressure  
Sea Level Pressure 30.12 in    
Wind  
Wind Speed 6 mph (WSW)    
Max Wind Speed 10 mph    
Max Gust Speed 20 mph    
Visibility 10 miles    
Events      
Averages and records for this station are not official NWS values.
T = Trace of Precipitation, MM = Missing Value Source: NWS Daily Summary

Daily Weather History Graph

Daily Weather History Graph

Search for Another Location

Airport or City:

Trip Planner

Search our weather history database for the weather conditions in past years. The results will help you decide how hot, cold, wet, or windy it might be!

Date:

Astronomy

Nov. 20, 2011 Rise Set
Actual Time 6:48 AM EST 4:32 PM EST
Civil Twilight 6:18 AM EST 5:02 PM EST
Nautical Twilight 5:44 AM EST 5:35 PM EST
Astronomical Twilight 5:11 AM EST 6:08 PM EST
Moon 1:10 AM EST (11/20) 1:22 PM EST (11/20)
Length of Visible Light 10h 44m
Length of Day
9h 44m
Waning Crescent, 27% of the Moon is Illuminated
Nov 20
Waning Crescent
Nov 25
New
Dec 2
First Quarter
Dec 10
Full
Dec 17
Last Quarter

Hourly Weather History & Observations

Time (EST) Temp. Dew Point Humidity Pressure Visibility Wind Dir Wind Speed Gust Speed Precip Events Conditions
12:56 AM 48.9 °F 39.0 °F 69% 30.22 in 10.0 mi Variable 5.8 mph - N/A   Clear
1:56 AM 48.0 °F 39.0 °F 71% 30.21 in 10.0 mi Variable 3.5 mph - N/A   Clear
2:56 AM 46.9 °F 39.9 °F 77% 30.19 in 10.0 mi Variable 3.5 mph - N/A   Clear
3:56 AM 48.0 °F 41.0 °F 77% 30.17 in 10.0 mi Variable 5.8 mph - N/A   Mostly Cloudy
4:56 AM 46.9 °F 41.0 °F 80% 30.15 in 10.0 mi Variable 3.5 mph - N/A   Scattered Clouds
5:56 AM 46.9 °F 41.0 °F 80% 30.14 in 10.0 mi SSW 5.8 mph - N/A   Mostly Cloudy
6:56 AM 48.0 °F 41.0 °F 77% 30.14 in 10.0 mi SW 4.6 mph - N/A   Scattered Clouds
7:56 AM 50.0 °F 42.1 °F 74% 30.13 in 10.0 mi Variable 5.8 mph - N/A   Scattered Clouds
8:56 AM 52.0 °F 43.0 °F 71% 30.13 in 10.0 mi Variable 4.6 mph - N/A   Scattered Clouds
9:56 AM 53.6 °F 42.8 °F 67% 30.12 in 10.0 mi West 6.9 mph - N/A   Scattered Clouds
10:56 AM 57.0 °F 43.0 °F 59% 30.11 in 10.0 mi Variable 6.9 mph 17.3 mph N/A   Clear
11:56 AM 60.1 °F 43.0 °F 53% 30.09 in 10.0 mi WSW 10.4 mph 17.3 mph N/A   Clear
12:56 PM 63.0 °F 44.1 °F 50% 30.06 in 10.0 mi West 8.1 mph 19.6 mph N/A   Clear
1:56 PM 64.0 °F 45.0 °F 50% 30.05 in 10.0 mi SSW 8.1 mph - N/A   Clear
2:56 PM 64.4 °F 46.4 °F 52% 30.06 in 10.0 mi SW 3.5 mph - N/A   Clear
3:56 PM 62.1 °F 46.0 °F 56% 30.06 in 10.0 mi South 4.6 mph - N/A   Clear
4:56 PM 60.1 °F 46.0 °F 60% 30.08 in 10.0 mi Variable 5.8 mph - N/A   Clear
5:56 PM 59.0 °F 46.4 °F 63% 30.09 in 10.0 mi SW 5.8 mph - N/A   Clear
6:56 PM 57.9 °F 46.0 °F 65% 30.10 in 10.0 mi WSW 5.8 mph - N/A   Clear
7:56 PM 57.9 °F 46.9 °F 67% 30.11 in 10.0 mi West 6.9 mph - N/A   Clear
8:56 PM 57.0 °F 46.9 °F 69% 30.11 in 10.0 mi West 8.1 mph - N/A   Clear
9:56 PM 57.0 °F 46.9 °F 69% 30.09 in 10.0 mi West 3.5 mph - N/A   Clear
10:56 PM 57.0 °F 46.9 °F 69% 30.12 in 10.0 mi West 8.1 mph - N/A   Clear
11:56 PM 55.9 °F 46.9 °F 72% 30.11 in 10.0 mi West 6.9 mph - N/A   Mostly Cloudy